This is the latest recevied weather packets stored in our database for station/object E27EKO-13. If no packets are shown the sender has not sent any weather packets the latest 10 day(s).
| Time | Temp. | Humidity | Pressure | Rain* | Wind** | Luminosity | Snow |
|---|---|---|---|---|---|---|---|
| 1777122321 | 33.33° C | 75% | 1008 hPa | - | - | 0 W/m² | - |
| 1777121999 | 33.89° C | 74% | 1008 hPa | - | - | 0 W/m² | - |
| 1777121677 | 33.89° C | 73% | 1008 hPa | - | - | 0 W/m² | - |
| 1777121355 | 33.89° C | 74% | 1008 hPa | - | - | 0 W/m² | - |
| 1777118549 | 33.89° C | 70% | 1007 hPa | - | - | 0 W/m² | - |
| 1777118271 | 33.89° C | 71% | 1007 hPa | - | - | 0 W/m² | - |
| 1777117949 | 33.89° C | 67% | 1007 hPa | - | - | 0 W/m² | - |
| 1777117622 | 33.89° C | 66% | 1007 hPa | - | - | 0 W/m² | - |
| 1777117300 | 33.89° C | 67% | 1007 hPa | - | - | 0 W/m² | - |
| 1777116978 | 33.89° C | 68% | 1007 hPa | - | - | 0 W/m² | - |
| 1777116909 | 33.89° C | 68% | 1007 hPa | - | - | 0 W/m² | - |
| 1777116587 | 32.78° C | 70% | 1007 hPa | - | - | 0 W/m² | - |
| 1777116279 | 33.33° C | 67% | 1007 hPa | - | - | 0 W/m² | - |
| 1777115943 | 34.44° C | 67% | 1007 hPa | - | - | 0 W/m² | - |
| 1777115798 | 34.44° C | 67% | 1007 hPa | - | - | 0 W/m² | - |
| 1777115476 | 35.56° C | 69% | 1007 hPa | - | - | 0 W/m² | - |
| 1777115154 | 35.56° C | 68% | 1007 hPa | - | - | 0 W/m² | - |
| 1777114832 | 36.11° C | 67% | 1007 hPa | - | - | 0 W/m² | - |
| 1777114548 | 36.11° C | 66% | 1007 hPa | - | - | 0 W/m² | - |
| 1777114226 | 36.11° C | 65% | 1007 hPa | - | - | 0 W/m² | - |
| 1777113904 | 36.11° C | 65% | 1007 hPa | - | - | 0 W/m² | - |
| 1777113582 | 36.11° C | 65% | 1007 hPa | - | - | 0 W/m² | - |
| 1777113464 | 36.11° C | 65% | 1006 hPa | - | - | 0 W/m² | - |
| 1777113142 | 36.67° C | 63% | 1007 hPa | - | - | 0 W/m² | - |
| 1777112820 | 36.67° C | 63% | 1007 hPa | - | - | 0 W/m² | - |
* Rain since midnight (hover to see other rain measurements)
** Current wind speed in m/s (hover to see current wind gust speed)